Total_Precipitation_Accumulation
2.16 2.14 2.10 2.06 1.94 2.01 2.16 2.36 2.41 2.77 2.91 2.53 2.14 2.00 1.98 2.04 1.96 1.92 1.83 1.74 1.67 1.83 2.24 2.50 2.37 2.11 1.80 1.55 1.39 1.30 1.18 1.06 0.97 0.84 0.84 0.92 0.92 0.85 0.78 0.71 0.65 0.57 0.51
2.29 2.41 2.27 2.24 2.09 2.05 2.19 2.36 2.52 3.02 3.04 2.84 2.41 2.16 2.07 2.02 1.85 1.76 1.84 2.04 1.88 1.78 1.92 2.24 2.47 2.44 2.27 2.04 1.75 1.54 1.39 1.29 1.13 0.90 0.80 0.87 0.91 0.88 0.87 0.84 0.76 0.65 0.57
2.29 2.32 2.14 2.05 2.11 2.26 2.43 2.44 2.54 2.84 2.61 2.60 2.38 2.18 1.98 1.79 1.60 1.55 1.73 1.93 1.84 1.79 1.92 2.08 2.30 2.42 2.53 2.56 2.39 2.20 1.83 1.56 1.35 1.11 0.93 0.89 0.93 0.88 0.85 0.86 0.82 0.75 0.65
2.19 2.36 2.17 2.02 2.33 2.37 2.47 2.73 2.84 2.85 2.77 2.79 2.53 2.17 1.92 1.79 1.43 1.33 1.36 1.53 1.74 1.54 1.81 2.05 2.11 2.20 2.48 2.77 3.03 3.06 2.66 2.20 1.86 1.59 1.31 1.15 1.12 1.00 0.84 0.78 0.82 0.78 0.63
2.25 2.50 2.48 2.58 2.62 2.66 2.70 2.57 2.89 2.93 2.81 2.83 2.47 2.19 1.80 1.58 1.40 1.24 1.21 1.21 1.37 1.49 1.59 1.67 1.82 1.94 2.34 3.01 3.36 3.52 3.50 3.10 2.51 2.11 1.86 1.68 1.57 1.31 1.02 0.89 0.89 0.84 0.69
2.36 2.71 2.57 2.58 2.64 2.79 2.85 2.81 2.86 2.85 2.60 2.57 2.29 2.07 1.70 1.31 1.26 1.19 1.06 1.07 1.16 1.18 1.41 1.69 1.86 1.65 1.98 2.60 2.98 3.43 3.78 3.61 2.97 2.57 2.41 2.27 2.13 1.80 1.28 1.02 0.97 0.93 0.86
2.36 2.72 2.60 2.78 2.74 2.73 2.74 2.77 2.82 2.69 2.31 2.49 2.57 2.09 1.56 1.21 1.23 1.03 0.94 1.00 1.07 1.10 1.35 1.65 1.85 1.83 1.67 1.75 2.06 2.51 3.13 3.47 3.24 2.89 2.73 2.59 2.56 2.30 1.71 1.36 1.21 1.06 1.03
2.56 2.58 2.71 2.69 2.73 2.83 2.75 2.70 2.74 2.56 2.17 2.33 2.56 2.61 1.98 1.59 1.24 0.89 0.98 1.09 1.19 1.30 1.35 1.49 1.67 1.84 1.84 2.01 1.82 1.72 2.23 2.94 3.41 3.39 3.08 2.63 2.44 2.31 2.02 1.84 1.62 1.41 1.35
2.76 2.74 2.71 2.61 2.58 2.44 2.45 2.50 2.50 2.50 2.35 2.23 2.45 2.73 2.30 1.82 1.51 1.10 1.05 1.12 1.29 1.50 1.51 1.58 1.61 1.80 1.95 2.28 2.37 2.11 1.95 2.21 2.91 3.65 3.72 3.12 2.52 2.21 2.10 2.07 2.03 1.84 1.70
2.60 2.39 2.29 2.35 2.35 2.21 2.20 1.97 2.06 2.20 2.19 2.02 2.19 2.24 2.25 2.25 2.16 1.57 1.19 1.09 1.24 1.40 1.53 1.45 1.46 1.69 1.99 2.21 2.44 2.34 1.94 1.75 2.06 2.96 3.49 3.38 2.93 2.46 2.14 2.14 2.48 2.51 2.20
2.30 1.99 1.95 2.03 2.03 1.95 1.88 1.82 1.95 1.86 1.79 1.78 1.97 2.13 2.19 2.24 2.17 2.03 1.65 1.56 1.55 1.45 1.40 1.42 1.59 1.73 1.87 2.10 2.43 2.23 2.08 1.90 1.79 1.92 2.34 2.72 2.89 2.79 2.67 2.83 3.26 3.46 3.21
1.97 1.73 1.60 1.72 1.82 1.86 1.83 1.80 1.88 1.77 1.75 1.87 1.84 1.89 2.09 2.11 2.11 2.24 1.93 1.77 1.73 1.51 1.46 1.52 1.57 1.74 1.80 1.95 1.99 2.09 2.03 1.82 1.70 1.66 1.77 2.04 2.32 2.46 2.59 2.88 3.36 3.75 3.95
1.70 1.64 1.63 1.69 1.74 1.81 1.71 1.75 1.80 1.83 1.95 1.99 1.89 1.83 1.93 1.98 2.07 2.23 2.20 2.01 1.91 1.74 1.75 1.71 1.56 1.56 1.50 1.65 1.74 1.74 1.56 1.47 1.37 1.31 1.34 1.42 1.52 1.73 1.99 2.33 2.79 3.24 3.59
1.77 1.81 1.78 1.66 1.61 1.70 1.62 1.83 1.75 1.78 1.95 1.95 1.74 1.94 1.98 2.01 2.21 2.35 2.46 2.53 2.31 2.06 1.99 1.96 1.83 1.62 1.51 1.51 1.56 1.51 1.30 1.26 1.09 1.03 1.04 1.05 1.10 1.23 1.47 1.70 1.99 2.30 2.58
1.87 1.98 1.93 1.80 1.70 1.76 1.88 2.12 2.03 2.01 2.18 2.11 2.04 2.19 2.14 2.07 2.17 2.24 2.42 2.59 2.67 2.41 2.25 2.20 2.04 1.75 1.60 1.56 1.53 1.37 1.39 1.30 1.09 1.01 0.95 0.91 0.93 1.01 1.07 1.16 1.31 1.51 1.72
1.74 1.90 2.01 1.95 1.87 1.90 2.05 2.20 2.18 2.32 2.44 2.38 2.40 2.48 2.41 2.26 2.29 2.34 2.36 2.55 2.79 2.72 2.41 2.07 1.90 1.69 1.57 1.40 1.48 1.37 1.39 1.35 1.20 1.08 0.96 0.87 0.86 0.88 0.88 0.91 0.99 1.10 1.26
1.69 1.77 1.94 2.01 1.99 2.02 2.11 2.14 2.10 2.36 2.45 2.43 2.39 2.38 2.34 2.40 2.39 2.29 2.36 2.50 2.70 2.75 2.45 2.01 1.90 1.88 1.83 1.68 1.61 1.51 1.40 1.35 1.20 1.10 0.98 0.92 0.87 0.87 0.89 0.89 0.91 0.93 0.99
1.73 1.80 1.92 1.93 1.86 1.87 2.04 2.06 2.11 2.32 2.41 2.30 2.25 2.24 2.08 2.12 2.15 2.02 2.12 2.20 2.30 2.50 2.45 2.18 2.14 2.13 2.09 1.95 1.89 1.81 1.63 1.42 1.19 1.14 1.02 0.96 0.92 0.87 0.86 0.87 0.90 0.94 0.97
1.69 1.75 1.76 1.77 1.82 1.93 2.02 2.03 2.02 2.01 2.00 2.05 2.23 2.31 2.14 2.13 2.02 1.96 1.96 1.91 1.98 2.10 2.26 2.20 2.14 2.19 2.13 2.11 2.01 1.82 1.69 1.57 1.27 1.18 1.13 1.04 0.97 0.91 0.87 0.87 0.89 0.96 1.03
1.56 1.64 1.71 1.78 1.85 1.90 1.93 1.98 2.00 1.94 1.91 1.95 2.07 2.12 2.09 2.04 1.94 2.00 1.91 1.87 1.90 2.01 2.13 2.16 2.11 2.23 2.26 2.19 2.18 1.99 1.97 1.84 1.65 1.40 1.32 1.19 1.18 1.16 1.07 0.98 0.92 0.93 1.03
1.62 1.68 1.73 1.75 1.75 1.75 1.65 1.66 1.71 1.72 1.84 1.82 1.73 1.75 1.75 1.78 1.77 1.76 1.63 1.74 1.90 1.98 2.02 2.05 2.06 2.23 2.41 2.45 2.28 2.20 2.26 2.20 2.01 1.73 1.60 1.41 1.31 1.23 1.18 1.11 1.04 0.98 0.97
1.69 1.71 1.68 1.73 1.72 1.48 1.60 1.59 1.56 1.68 1.78 1.77 1.67 1.58 1.50 1.48 1.43 1.41 1.37 1.44 1.66 1.82 1.88 1.96 1.97 2.12 2.35 2.55 2.62 2.57 2.45 2.35 2.29 2.12 2.01 1.88 1.64 1.50 1.37 1.24 1.19 1.12 1.04
1.75 1.72 1.66 1.65 1.68 1.73 1.73 1.55 1.42 1.42 1.54 1.57 1.54 1.53 1.37 1.27 1.40 1.35 1.37 1.35 1.37 1.51 1.60 1.75 1.84 1.86 2.04 2.29 2.51 2.46 2.52 2.54 2.50 2.46 2.45 2.37 2.05 1.80 1.55 1.37 1.22 0.98 0.89
1.92 1.89 1.82 1.74 1.75 1.73 1.65 1.46 1.44 1.39 1.44 1.46 1.49 1.50 1.49 1.42 1.43 1.51 1.51 1.45 1.35 1.32 1.38 1.45 1.56 1.68 1.88 2.13 2.36 2.34 2.35 2.42 2.45 2.42 2.46 2.46 2.20 2.01 1.75 1.55 1.40 1.13 0.95
2.01 1.94 1.90 1.93 1.88 1.91 1.92 1.72 1.69 1.57 1.59 1.61 1.63 1.63 1.61 1.53 1.61 1.54 1.48 1.47 1.43 1.41 1.45 1.50 1.47 1.58 1.79 1.90 2.03 2.09 2.06 2.10 2.03 1.95 2.07 2.26 2.25 2.17 2.01 1.74 1.48 1.28 1.05
2.10 2.12 2.11 2.09 2.10 2.14 2.33 2.11 1.93 1.77 1.80 1.81 1.88 1.86 1.86 1.69 1.67 1.57 1.44 1.47 1.48 1.50 1.55 1.50 1.44 1.42 1.45 1.63 1.79 1.81 1.94 2.06 1.94 1.80 1.59 1.69 1.89 2.07 2.22 2.02 1.76 1.55 1.40